Regional Weather Roundup
Issued by NWS Midland/Odessa, TX

Skip options and go directly to product.
Home | Oldest Version | Previous Version | Current Version | All | Text Only | Save Text | Print | Product List | Glossary Off

Skip product version selection by date and time.   

578
ASUS44 KMAF 161010
RWRMAF
MIDLAND AREA WEATHER ROUNDUP
NATIONAL WEATHER SERVICE MIDLAND TX
500 AM CDT WED APR 16 2014

...IN SOUTHWEST TEXAS AND SOUTHEAST NEW MEXICO...

CITY           SKY/WX    TMP DP  RH WIND       PRES   REMARKS
ALPINE         CLEAR     53  12  19 SW10      30.00F
ANDREWS        FAIR      49  15  26 S13G22    29.89S
ARTESIA        MOCLDY    41   9  26 S6        29.88S WCI  37
BIG SPRING     PTCLDY    51  18  26 S18G25    29.94F
CARLSBAD       MOCLDY    42   8  24 S5        29.86F WCI  39
DRYDEN           N/A     45  15  30 NE7       29.96F
FORT STOCKTON  CLEAR     49  15  25 SE18      29.89F
GUAD PASS      CLEAR     54  11  18 SW7       29.96F
HOBBS          MOCLDY    45  10  24 S10       29.90S WCI  39
MARFA          CLEAR     34   7  32 NE7       30.00F WCI  28
MIDLAND AIRPK  CLOUDY    52  16  24 S16G24    29.91F
MIDLAND INTL   CLOUDY    51  17  26 S16       29.90F
ODESSA         CLOUDY    51  15  23 S18       29.90F
PECOS          CLEAR     43  13  30 NE8       29.86F WCI  38
PRESIDIO       FAIR      56  13  18 N9        29.91F
SEMINOLE       MOCLDY    47  13  25 S12G17    29.90S
SNYDER         PTCLDY    43  13  30 S9        29.94F WCI  37
WINK           MOCLDY    50  14  23 SE13      29.88S
$$
...OTHER STATIONS IN TEXAS...

CITY           SKY/WX    TMP DP  RH WIND       PRES   REMARKS
ABILENE        MOCLDY    50  20  30 S16       29.95F
AMARILLO       PTCLDY    46   9  22 S14       29.81F WCI  40
AUSTIN         CLEAR     35  33  92 CALM      30.11F
BROWNSVILLE    CLEAR     49  45  86 E3        30.10F
CORPUS CHRISTI CLEAR     45  37  73 SE7       30.11F
DALLAS FTW     MOCLDY    47  30  51 S9        30.08R
DEL RIO        CLEAR     48  19  31 SE6       30.05R
EL PASO        FAIR      54   5  14 CALM      29.88F
HOUSTON INT    CLEAR     41  35  79 E5        30.15F WCI  38
LUBBOCK        PTCLDY    47  11  23 S16       29.87F
SAN ANGELO     CLEAR     49  19  30 S13       29.99S
SAN ANTONIO    CLEAR     45  31  58 E3        30.08F
WACO           CLEAR     48  33  56 S15       30.11S
WICHITA FALLS  NOT AVBL
$$
...OTHER LOCATIONS IN NEW MEXICO...

CITY           SKY/WX    TMP DP  RH WIND       PRES   REMARKS
ALAMAGORDO     CLEAR     48   0  13 CALM      29.89F
ALBUQUERQUE    PTCLDY    45   8  22 SE7       29.89F
CANNON AFB     PTCLDY    42   6  22 SW7       29.84F WCI  38
CLOVIS         MOCLDY    43   9  24 SW13      29.86F WCI  36
HOLLOMAN AFB   CLEAR     49   5  16 SE5       29.89F
ROSWELL        CLEAR     45   9  23 S9        29.85F
RUIDOSO        CLEAR     46   1  15 S6        29.99S
SANTA FE       CLEAR     38   8  29 NW8       29.90S WCI  32
TRUTH OR CONSE FAIR      47   7  19 W10       29.90F
TUCUMCARI      PTCLDY    52   7  16 SW20      29.78F
$$

USA.gov is the U.S. government's official web portal to all federal, state and local government web resources and services.